This is the latest recevied weather packets stored in our database for station/object EA5CLU-13. If no packets are shown the sender has not sent any weather packets the latest 10 day(s).
| Time | Temp. | Humidity | Pressure | Rain* | Wind** | Luminosity | Snow |
|---|---|---|---|---|---|---|---|
| 1787730417 | 21.67° C | - | 1017.5 hPa | 0 mm | - | - | - |
| 1787729517 | 21.11° C | - | 1014.3 hPa | 0 mm | - | - | - |
| 1787729216 | 21.11° C | - | 1014.8 hPa | 0 mm | - | - | - |
| 1787728617 | 21.67° C | - | 1017.5 hPa | 0 mm | - | - | - |
| 1787728317 | 21.11° C | - | 1017.9 hPa | 0 mm | - | - | - |
| 1787728017 | 21.11° C | - | 1016.2 hPa | 0 mm | - | - | - |
| 1787727118 | 21.11° C | - | 1015.7 hPa | 0 mm | - | - | - |
| 1787726817 | 20.56° C | - | 1014.6 hPa | 0 mm | - | - | - |
| 1787726517 | 20.56° C | - | 1014 hPa | 0 mm | - | - | - |
| 1787725917 | 20.56° C | - | 1015.6 hPa | 0 mm | - | - | - |
| 1787725617 | 20° C | - | 1015.7 hPa | 0 mm | - | - | - |
| 1787725316 | 20° C | - | 1016.3 hPa | 0 mm | - | - | - |
| 1787725017 | 20° C | - | 1016.8 hPa | 0 mm | - | - | - |
| 1787724716 | 20° C | - | 1017.1 hPa | 0 mm | - | - | - |
| 1787723818 | 20° C | - | 1016.9 hPa | 0 mm | - | - | - |
| 1787723517 | 20° C | - | 1016.3 hPa | 0 mm | - | - | - |
| 1787723217 | 20° C | - | 1016.2 hPa | 0 mm | - | - | - |
| 1787722616 | 20.56° C | - | 1016 hPa | 0 mm | - | - | - |
| 1787722315 | 25° C | - | 1014.9 hPa | 0 mm | - | - | - |
| 1787649944 | 26.11° C | - | 1018.1 hPa | 0 mm | - | - | - |
| 1787649643 | 25.56° C | - | 1018 hPa | 0 mm | - | - | - |
| 1787649345 | 25.56° C | - | 1018.2 hPa | 0 mm | - | - | - |
| 1787649046 | 25.56° C | - | 1018.1 hPa | 0 mm | - | - | - |
| 1787648745 | 25° C | - | 1017.9 hPa | 0 mm | - | - | - |
| 1787648445 | 25° C | - | 1018.1 hPa | 0 mm | - | - | - |
* Rain latest hour (hover to see other rain measurements)
** Current wind speed in m/s (hover to see current wind gust speed)